| time (UTC) | temp F | wind direction | speed MPH | gust MPH | rain 1hr in | rain 24hr in | rain mn in | humidity % | barometer mb |
| 20260903133102 | 72 | 250 | 12.0 | 0.0 | 0.00 | 0.00 | 0.00 | 49 | 1019.0 |
| 20260903132058 | 73 | 240 | 14.0 | 0.0 | 0.00 | 0.00 | 0.00 | 43 | |
| 20260903123104 | 73 | 250 | 15.0 | 0.0 | 0.00 | 0.00 | 0.00 | 46 | 1019.0 |
| 20260903121856 | 73 | 230 | 14.0 | 0.0 | 0.00 | 0.00 | 0.00 | 43 | |
| 20260903113102 | 72 | 240 | 9.0 | 0.0 | 0.00 | 0.00 | 0.00 | 49 | 1019.0 |
| 20260903111851 | 72 | 230 | 12.0 | 0.0 | 0.00 | 0.00 | 0.00 | 46 | |
| 20260903103103 | 72 | 280 | 13.0 | 0.0 | 0.00 | 0.00 | 0.00 | 43 | 1020.0 |
| 20260903102254 | 72 | 260 | 14.0 | 0.0 | 0.00 | 0.00 | 0.00 | 40 | |
| 20260903100104 | 72 | 270 | 9.0 | 0.0 | 0.00 | 0.00 | 0.00 | 43 | 1020.0 |
| 20260903093102 | 70 | 250 | 10.0 | 0.0 | 0.00 | 0.00 | 0.00 | 49 | 1020.0 |
| 20260903091853 | 70 | 240 | 7.0 | 0.0 | 0.00 | 0.00 | 0.00 | 49 | |
| 20260903083103 | 68 | 230 | 6.0 | 0.0 | 0.00 | 0.00 | 0.00 | 60 | 1020.0 |
| 20260903081851 | 68 | 240 | 7.0 | 0.0 | 0.00 | 0.00 | 0.00 | 56 | |
| 20260903080211 | 66 | 230 | 5.0 | 0.0 | 0.00 | 0.00 | 0.00 | 63 | 1021.0 |
| 20260903073103 | 64 | 230 | 5.0 | 0.0 | 0.00 | 0.00 | 0.00 | 72 | 1021.0 |
| 20260903072054 | 64 | 250 | 7.0 | 0.0 | 0.00 | 0.00 | 0.00 | 67 | |
| 20260903070210 | 63 | 220 | 6.0 | 0.0 | 0.00 | 0.00 | 0.00 | 77 | 1021.0 |
| 20260903063102 | 63 | 240 | 3.0 | 0.0 | 0.00 | 0.00 | 0.00 | 77 | 1020.0 |
| 20260903061851 | 61 | 330 | 2.0 | 0.0 | 0.00 | 0.00 | 0.00 | 82 | |
| 20260903053103 | 59 | 220 | 1.0 | 0.0 | 0.00 | 0.00 | 0.00 | 87 | 1020.0 |
| 20260903051851 | 59 | 210 | 2.0 | 0.0 | 0.00 | 0.00 | 0.00 | 87 | |
| 20260903043102 | 57 | 220 | 5.0 | 0.0 | 0.00 | 0.00 | 0.00 | 93 | 1020.0 |
| 20260903042254 | 59 | 220 | 5.0 | 0.0 | 0.00 | 0.00 | 0.00 | 87 | |
| 20260903040103 | 57 | 220 | 5.0 | 0.0 | 0.00 | 0.00 | 0.00 | 93 | 1020.0 |
| 20260903033102 | 59 | 210 | 3.0 | 0.0 | 0.00 | 0.00 | 0.00 | 87 | 1020.0 |
| 20260903031852 | 59 | 220 | 2.0 | 0.0 | 0.00 | 0.00 | 0.00 | 82 | |
| 20260903030103 | 57 | 220 | 3.0 | 0.0 | 0.00 | 0.00 | 0.00 | 93 | 1020.0 |
| 20260903023102 | 57 | 200 | 5.0 | 0.0 | 0.00 | 0.00 | 0.00 | 93 | 1020.0 |
| 20260903021851 | 59 | 220 | 5.0 | 0.0 | 0.00 | 0.00 | 0.00 | 82 | |
| 20260903020103 | 57 | 220 | 5.0 | 0.0 | 0.00 | 0.00 | 0.00 | 87 | 1020.0 |
| 20260903013103 | 57 | 230 | 5.0 | 0.0 | 0.00 | 0.00 | 0.00 | 87 | 1020.0 |
| 20260903012052 | 61 | 270 | 5.0 | 0.0 | 0.00 | 0.00 | 0.00 | 72 | |
| 20260903003102 | 59 | 250 | 6.0 | 0.0 | 0.00 | 0.00 | 0.00 | 82 | 1020.0 |
| 20260903001854 | 61 | 240 | 7.0 | 0.0 | 0.00 | 0.00 | 0.00 | 77 | |
| 20260903000104 | 59 | 250 | 6.0 | 0.0 | 0.00 | 0.00 | 0.00 | 82 | 1020.0 |
| 20260902233102 | 59 | 210 | 5.0 | 0.0 | 0.00 | 0.00 | 0.00 | 82 | 1020.0 |
| 20260902231851 | 61 | 190 | 5.0 | 0.0 | 0.00 | 0.00 | 0.00 | 77 | |
| 20260902230104 | 61 | 190 | 5.0 | 0.0 | 0.00 | 0.00 | 0.00 | 82 | 1020.0 |
| 20260902223103 | 61 | 200 | 3.0 | 0.0 | 0.00 | 0.00 | 0.00 | 77 | 1020.0 |
| 20260902222253 | 61 | 160 | 5.0 | 0.0 | 0.00 | 0.00 | 0.00 | 77 | |
| 20260902213102 | 63 | 190 | 6.0 | 0.0 | 0.00 | 0.00 | 0.00 | 77 | 1020.0 |
| 20260902211853 | 63 | 200 | 7.0 | 0.0 | 0.00 | 0.00 | 0.00 | 77 | |
| 20260902210212 | 63 | 200 | 7.0 | 0.0 | 0.00 | 0.00 | 0.00 | 77 | 1020.0 |
| 20260902203103 | 63 | 0 | 0.0 | 0.0 | 0.00 | 0.00 | 0.00 | 77 | 1020.0 |
| 20260902201854 | 64 | 40 | 2.0 | 0.0 | 0.00 | 0.00 | 0.00 | 67 | |
| 20260902200103 | 64 | 0 | 2.0 | 0.0 | 0.00 | 0.00 | 0.00 | 72 | 1020.0 |
| 20260902193103 | 66 | 0 | 1.0 | 0.0 | 0.00 | 0.00 | 0.00 | 68 | 1020.0 |
| 20260902192055 | 68 | 220 | 2.0 | 0.0 | 0.00 | 0.00 | 0.00 | 60 | |
| 20260902190211 | 68 | 0 | 2.0 | 0.0 | 0.00 | 0.00 | 0.00 | 64 | 1020.0 |
| 20260902183102 | 70 | 0 | 1.0 | 0.0 | 0.00 | 0.00 | 0.00 | 56 | 1019.0 |
| 20260902181851 | 72 | 360 | 2.0 | 0.0 | 0.00 | 0.00 | 0.00 | 53 | |
| 20260902180103 | 70 | 0 | 1.0 | 0.0 | 0.00 | 0.00 | 0.00 | 60 | 1019.0 |
| 20260902173102 | 72 | 0 | 1.0 | 0.0 | 0.00 | 0.00 | 0.00 | 49 | 1019.0 |
| 20260902172054 | 72 | 280 | 2.0 | 0.0 | 0.00 | 0.00 | 0.00 | 49 | |
| 20260902163103 | 73 | 230 | 6.0 | 0.0 | 0.00 | 0.00 | 0.00 | 49 | 1019.0 |
| 20260902162254 | 75 | 250 | 5.0 | 0.0 | 0.00 | 0.00 | 0.00 | 41 | |
| 20260902153103 | 75 | 220 | 5.0 | 0.0 | 0.00 | 0.00 | 0.00 | 41 | 1019.0 |
| 20260902151850 | 75 | 210 | 2.0 | 0.0 | 0.00 | 0.00 | 0.00 | 41 | |
| 20260902143103 | 75 | 260 | 3.0 | 0.0 | 0.00 | 0.00 | 0.00 | 44 | 1019.0 |
| 20260902142054 | 75 | 250 | 5.0 | 0.0 | 0.00 | 0.00 | 0.00 | 38 |